Total_Precipitation_Accumulation
0.03 0.03 0.03 0.08 0.13 0.12 0.68 1.07 1.33 1.39 2.07 1.89 1.68 1.02 0.85 0.82 1.08 1.07 0.87 0.61 0.48 0.32 0.16 0.07 0.12 0.04 0.04 0.01 0.00 0.00 0.00 0.00
0.01 0.02 0.05 0.08 0.12 0.31 0.81 1.22 1.52 1.15 0.77 0.57 0.84 0.80 0.75 0.85 0.88 0.83 0.65 0.51 0.31 0.28 0.10 0.06 0.05 0.03 0.05 0.02 0.00 0.01 0.01 0.01
0.02 0.04 0.10 0.14 0.27 0.38 0.41 0.37 0.54 0.22 0.15 0.23 0.51 0.60 0.66 0.69 0.85 0.67 0.59 0.53 0.39 0.16 0.05 0.08 0.01 0.03 0.03 0.02 0.01 0.02 0.02 0.02
0.02 0.09 0.13 0.15 0.15 0.17 0.06 0.06 0.27 0.22 0.10 0.16 0.40 0.67 0.77 0.91 1.23 1.04 0.59 0.53 0.51 0.33 0.09 0.05 0.03 0.03 0.02 0.02 0.01 0.01 0.02 0.02
0.01 0.01 0.02 0.02 0.02 0.03 0.02 0.07 0.13 0.18 0.20 0.24 0.32 0.63 0.67 0.77 0.80 1.00 0.66 0.47 0.33 0.24 0.11 0.06 0.05 0.05 0.03 0.04 0.03 0.03 0.02 0.02
0.00 0.01 0.02 0.01 0.04 0.04 0.10 0.13 0.15 0.12 0.17 0.32 0.22 0.31 0.45 0.65 0.81 1.10 1.19 0.82 0.48 0.27 0.15 0.10 0.11 0.08 0.16 0.10 0.06 0.08 0.07 0.05
0.01 0.02 0.02 0.03 0.12 0.17 0.16 0.13 0.14 0.15 0.21 0.27 0.28 0.21 0.17 0.24 0.50 0.79 1.35 1.37 0.85 0.45 0.22 0.14 0.16 0.18 0.24 0.22 0.22 0.16 0.17 0.14
0.02 0.02 0.06 0.09 0.20 0.22 0.16 0.13 0.12 0.16 0.20 0.26 0.20 0.15 0.09 0.08 0.11 0.27 0.58 1.34 1.32 0.77 0.35 0.21 0.22 0.28 0.31 0.35 0.36 0.32 0.28 0.33
0.01 0.04 0.06 0.10 0.30 0.22 0.10 0.04 0.04 0.06 0.09 0.16 0.13 0.13 0.10 0.09 0.08 0.17 0.23 0.40 0.89 0.87 0.65 0.36 0.33 0.38 0.40 0.48 0.63 0.69 0.82 1.00
0.00 0.02 0.05 0.11 0.22 0.16 0.04 0.01 0.00 0.01 0.03 0.07 0.11 0.14 0.07 0.13 0.31 0.20 0.35 0.34 0.50 0.63 0.79 0.70 0.54 0.53 0.56 0.67 0.80 1.04 1.09 0.96
0.00 0.01 0.02 0.07 0.16 0.16 0.19 0.11 0.02 0.00 0.01 0.04 0.04 0.13 0.15 0.17 0.29 0.14 0.22 0.31 0.49 0.74 0.88 0.92 0.88 0.77 0.76 0.92 0.95 0.92 0.88 0.73
0.01 0.00 0.00 0.04 0.15 0.16 0.20 0.31 0.20 0.07 0.02 0.02 0.05 0.18 0.18 0.28 0.28 0.33 0.33 0.50 0.68 0.87 1.03 1.16 1.23 1.24 1.13 1.02 0.85 0.65 0.54 0.49
0.05 0.04 0.02 0.04 0.13 0.17 0.09 0.25 0.26 0.29 0.18 0.12 0.14 0.30 0.35 0.41 0.56 0.53 0.63 0.78 0.83 1.01 1.16 1.21 1.24 1.17 1.14 1.09 0.96 0.82 0.70 0.62
0.02 0.04 0.05 0.11 0.13 0.18 0.09 0.12 0.15 0.25 0.38 0.40 0.26 0.40 0.40 0.68 0.77 1.02 1.16 1.16 1.25 1.28 1.29 1.17 1.09 1.01 0.88 0.65 0.51 0.38 0.30 0.28
0.05 0.09 0.10 0.14 0.20 0.26 0.19 0.27 0.24 0.31 0.39 0.40 0.32 0.35 0.46 0.59 0.70 0.83 1.22 1.29 1.03 0.81 0.74 0.57 0.30 0.16 0.15 0.11 0.11 0.13 0.17 0.24
0.03 0.10 0.18 0.19 0.25 0.29 0.28 0.26 0.28 0.37 0.42 0.48 0.42 0.56 0.93 0.98 1.04 0.89 0.70 0.49 0.41 0.32 0.24 0.18 0.16 0.13 0.12 0.10 0.10 0.14 0.16 0.19
0.04 0.04 0.13 0.18 0.28 0.29 0.30 0.33 0.28 0.29 0.29 0.30 0.48 0.62 0.54 0.59 0.53 0.39 0.26 0.21 0.22 0.20 0.19 0.18 0.16 0.15 0.29 0.27 0.23 0.24 0.31 0.37
0.03 0.02 0.06 0.19 0.21 0.24 0.29 0.37 0.37 0.24 0.19 0.21 0.28 0.28 0.25 0.20 0.13 0.13 0.18 0.19 0.16 0.14 0.12 0.12 0.17 0.25 0.56 0.38 0.42 0.25 0.32 0.43
0.04 0.01 0.01 0.03 0.09 0.15 0.24 0.30 0.39 0.36 0.21 0.12 0.09 0.07 0.05 0.06 0.10 0.17 0.17 0.18 0.15 0.14 0.19 0.29 0.35 0.55 0.72 0.48 0.51 0.36 0.47 0.56